Back to catalog

QIANFAN-90

AliveCommunicationsPO
NORAD 63176·PAYLOAD·🇨🇳 China

Launched Mar 11, 2025 from Wenchang Space Launch Site

Loading…

Next Passes (next 24 hours)

TLE

FreshSource: Space-Track

Epoch: Sep 14, 2026, 13:37 UTC

1 63176U 25046T   26257.56802911  .00000030  00000-0  28258-4 0  9996
2 63176  88.9653 291.3786 0015029  53.4030 306.8501 13.51019818 84666

Track QIANFAN-90 in real time with AllMySat

Download on the App Store